Tracking 20092 objects as of 14-Dec-2019
HD Live streaming from Space Station
objects crossing your sky now

COSMOS 1382 DEB

Track COSMOS 1382 DEB now!


NORAD ID: 27903
Int'l Code: 1982-064E
Perigee: 3,925.5 km
Apogee: 37,257.3 km
Inclination: 68.4 °
Period: 734.3 minutes
Semi major axis: 26962 km
RCS: 0.3202 m2 (medium)
Launch date: June 25, 1982
Source: Commonwealth of Independent States (former USSR) (CIS)
Launch site: PLESETSK MISSILE AND SPACE COMPLEX (PKMTR)

Note: This is SATELLITE DEBRIS
aabbcc
Your satellite tracking list
Your tracking list is empty




NASA's NSSDC Master Catalog

Two Line Element Set (TLE):
1 27903U 82064E   19347.20717847  .00000144  00000-0  00000+0 0  9999
2 27903  68.4459  69.4796 6181171  35.2803 353.1399  1.96094221124246
Source of the keplerian elements: AFSPC